| time (UTC) | temp C | wind direction | speed KPH | gust KPH | rain 1hr cm | rain 24hr cm | rain mn cm | humidity % | barometer mb |
| 20260902173625 | 31 | 161 | 3.2 | 11.3 | 0.00 | 0.00 | 0.00 | 66 | 1013.8 |
| 20260902172625 | 31 | 310 | 6.4 | 14.5 | 0.00 | 0.00 | 0.00 | 63 | 1013.9 |
| 20260902171623 | 31 | 275 | 6.4 | 14.5 | 0.00 | 0.00 | 0.00 | 64 | 1014.2 |
| 20260902170630 | 31 | 247 | 3.2 | 17.7 | 0.00 | 0.00 | 0.00 | 67 | 1014.4 |
| 20260902165621 | 31 | 300 | 6.4 | 11.3 | 0.00 | 0.00 | 0.00 | 69 | 1014.4 |
| 20260902164621 | 31 | 283 | 3.2 | 6.4 | 0.00 | 0.00 | 0.00 | 69 | 1014.5 |
| 20260902163621 | 31 | 341 | 6.4 | 11.3 | 0.00 | 0.00 | 0.00 | 68 | 1014.7 |
| 20260902162622 | 31 | 184 | 6.4 | 17.7 | 0.00 | 0.00 | 0.00 | 70 | 1014.7 |
| 20260902161625 | 31 | 334 | 6.4 | 22.5 | 0.00 | 0.00 | 0.00 | 68 | 1014.7 |
| 20260902160622 | 30 | 344 | 6.4 | 25.7 | 0.00 | 0.00 | 0.00 | 67 | 1014.6 |
| 20260902155622 | 31 | 227 | 3.2 | 14.5 | 0.00 | 0.00 | 0.00 | 67 | 1014.6 |
| 20260902154624 | 31 | 250 | 3.2 | 14.5 | 0.00 | 0.00 | 0.00 | 68 | 1014.4 |
| 20260902153619 | 31 | 177 | 6.4 | 17.7 | 0.00 | 0.00 | 0.00 | 69 | 1014.3 |
| 20260902152619 | 30 | 269 | 3.2 | 14.5 | 0.00 | 0.00 | 0.00 | 71 | 1014.3 |
| 20260902151624 | 30 | 323 | 3.2 | 11.3 | 0.00 | 0.00 | 0.00 | 71 | 1014.3 |
| 20260902150618 | 30 | 313 | 3.2 | 14.5 | 0.00 | 0.00 | 0.00 | 71 | 1014.3 |
| 20260902145616 | 29 | 240 | 3.2 | 11.3 | 0.00 | 0.00 | 0.00 | 74 | 1014.3 |
| 20260902144620 | 29 | 233 | 3.2 | 14.5 | 0.00 | 0.00 | 0.00 | 75 | 1014.3 |
| 20260902143621 | 28 | 254 | 0.0 | 14.5 | 0.00 | 0.00 | 0.00 | 77 | 1014.2 |
| 20260902142618 | 28 | 200 | 0.0 | 6.4 | 0.00 | 0.00 | 0.00 | 79 | 1014.3 |
| 20260902141622 | 28 | 188 | 0.0 | 14.5 | 0.00 | 0.00 | 0.00 | 81 | 1014.2 |
| 20260902140618 | 27 | 186 | 0.0 | 6.4 | 0.00 | 0.00 | 0.00 | 83 | 1014.3 |
| 20260902135614 | 27 | 188 | 3.2 | 11.3 | 0.00 | 0.00 | 0.00 | 83 | 1014.2 |
| 20260902134612 | 26 | 193 | 3.2 | 14.5 | 0.00 | 0.00 | 0.00 | 85 | 1014.3 |
| 20260902133612 | 26 | 175 | 3.2 | 11.3 | 0.00 | 0.00 | 0.00 | 87 | 1014.4 |
| 20260902132614 | 26 | 173 | 0.0 | 8.0 | 0.00 | 0.00 | 0.00 | 89 | 1014.5 |
| 20260902131614 | 25 | 225 | 3.2 | 14.5 | 0.00 | 0.00 | 0.00 | 90 | 1014.4 |
| 20260902130614 | 25 | 171 | 3.2 | 14.5 | 0.00 | 0.00 | 0.00 | 91 | 1014.4 |
| 20260902125618 | 25 | 176 | 3.2 | 11.3 | 0.00 | 0.00 | 0.00 | 92 | 1014.4 |
| 20260902124610 | 25 | 174 | 3.2 | 14.5 | 0.00 | 0.00 | 0.00 | 92 | 1014.4 |
| 20260902123607 | 24 | 165 | 0.0 | 8.0 | 0.00 | 0.00 | 0.00 | 93 | 1014.5 |
| 20260902122607 | 24 | 212 | 0.0 | 0.0 | 0.00 | 0.00 | 0.00 | 93 | 1014.4 |
| 20260902121607 | 24 | 188 | 0.0 | 3.2 | 0.00 | 0.00 | 0.00 | 92 | 1014.4 |
| 20260902120608 | 24 | 178 | 0.0 | 6.4 | 0.00 | 0.00 | 0.00 | 92 | 1014.4 |
| 20260902115608 | 24 | 274 | 0.0 | 6.4 | 0.00 | 0.00 | 0.00 | 92 | 1014.3 |
| 20260902114608 | 24 | 173 | 3.2 | 14.5 | 0.00 | 0.00 | 0.00 | 92 | 1014.2 |
| 20260902113608 | 24 | 160 | 0.0 | 11.3 | 0.00 | 0.00 | 0.00 | 92 | 1014.2 |
| 20260902112629 | 24 | 148 | 0.0 | 3.2 | 0.00 | 0.00 | 0.00 | 92 | 1014.1 |
| 20260902111604 | 24 | 170 | 0.0 | 6.4 | 0.00 | 0.00 | 0.00 | 92 | 1014.0 |
| 20260902110605 | 24 | 178 | 0.0 | 8.0 | 0.00 | 0.00 | 0.00 | 93 | 1014.1 |
| 20260902105601 | 24 | 315 | 3.2 | 11.3 | 0.00 | 0.00 | 0.00 | 93 | 1014.4 |
| 20260902104603 | 24 | 326 | 3.2 | 14.5 | 0.00 | 0.00 | 0.00 | 93 | 1014.7 |
| 20260902103602 | 24 | 304 | 0.0 | 8.0 | 0.00 | 0.00 | 0.00 | 93 | 1014.6 |
| 20260902102601 | 24 | 277 | 0.0 | 11.3 | 0.00 | 0.00 | 0.00 | 92 | 1014.4 |
| 20260902101602 | 24 | 323 | 0.0 | 6.4 | 0.00 | 0.00 | 0.00 | 92 | 1014.4 |
| 20260902100605 | 24 | 234 | 0.0 | 3.2 | 0.00 | 0.00 | 0.00 | 92 | 1014.0 |
| 20260902095604 | 24 | 236 | 0.0 | 3.2 | 0.00 | 0.00 | 0.00 | 92 | 1013.9 |
| 20260902094600 | 24 | 236 | 0.0 | 3.2 | 0.00 | 0.00 | 0.00 | 92 | 1014.0 |
| 20260902093558 | 24 | 236 | 0.0 | 3.2 | 0.00 | 0.00 | 0.00 | 92 | 1014.1 |
| 20260902092558 | 24 | 236 | 0.0 | 3.2 | 0.00 | 0.00 | 0.00 | 92 | 1014.2 |
| 20260902091600 | 24 | 236 | 0.0 | 3.2 | 0.00 | 0.00 | 0.00 | 92 | 1014.2 |
| 20260902090558 | 24 | 181 | 0.0 | 3.2 | 0.00 | 0.00 | 0.00 | 92 | 1014.2 |
| 20260902085600 | 24 | 184 | 0.0 | 3.2 | 0.00 | 0.00 | 0.00 | 92 | 1014.1 |
| 20260902084559 | 24 | 178 | 0.0 | 3.2 | 0.00 | 0.00 | 0.00 | 92 | 1013.9 |
| 20260902083600 | 24 | 178 | 0.0 | 14.5 | 0.00 | 0.00 | 0.00 | 92 | 1013.9 |
| 20260902082600 | 23 | 171 | 0.0 | 6.4 | 0.00 | 0.00 | 0.00 | 92 | 1013.9 |
| 20260902081557 | 23 | 188 | 0.0 | 6.4 | 0.00 | 0.00 | 0.00 | 91 | 1013.9 |
| 20260902080600 | 23 | 188 | 0.0 | 0.0 | 0.00 | 0.00 | 0.00 | 91 | 1014.0 |
| 20260902075556 | 23 | 163 | 0.0 | 0.0 | 0.00 | 0.00 | 0.00 | 91 | 1014.1 |
| 20260902074552 | 23 | 163 | 0.0 | 0.0 | 0.00 | 0.00 | 0.00 | 90 | 1014.1 |
| 20260902073556 | 23 | 163 | 0.0 | 0.0 | 0.00 | 0.00 | 0.00 | 90 | 1013.9 |
| 20260902072554 | 23 | 163 | 0.0 | 0.0 | 0.00 | 0.00 | 0.00 | 90 | 1013.7 |
| 20260902071554 | 23 | 163 | 0.0 | 0.0 | 0.00 | 0.00 | 0.00 | 90 | 1013.8 |
| 20260902070552 | 23 | 163 | 0.0 | 0.0 | 0.00 | 0.00 | 0.00 | 89 | 1013.9 |
| 20260902065554 | 23 | 163 | 0.0 | 0.0 | 0.00 | 0.00 | 0.00 | 89 | 1013.8 |
| 20260902064551 | 23 | 163 | 0.0 | 0.0 | 0.00 | 0.00 | 0.00 | 89 | 1013.8 |
| 20260902063552 | 24 | 163 | 0.0 | 0.0 | 0.00 | 0.00 | 0.00 | 89 | 1013.9 |
| 20260902062550 | 24 | 163 | 0.0 | 0.0 | 0.00 | 0.00 | 0.00 | 89 | 1014.2 |
| 20260902061551 | 24 | 163 | 0.0 | 0.0 | 0.00 | 0.00 | 0.00 | 89 | 1014.2 |
| 20260902060551 | 24 | 163 | 0.0 | 0.0 | 0.00 | 0.00 | 0.00 | 89 | 1014.3 |
| 20260902055556 | 24 | 163 | 0.0 | 3.2 | 0.00 | 0.00 | 0.00 | 88 | 1014.4 |
| 20260902054553 | 24 | 163 | 0.0 | 0.0 | 0.00 | 0.00 | 0.00 | 88 | 1014.5 |
| 20260902053553 | 24 | 163 | 0.0 | 0.0 | 0.00 | 0.00 | 0.00 | 88 | 1014.6 |
| 20260902052547 | 24 | 163 | 0.0 | 0.0 | 0.00 | 0.00 | 0.00 | 88 | 1014.6 |
| 20260902051544 | 24 | 163 | 0.0 | 3.2 | 0.00 | 0.00 | 0.00 | 88 | 1014.6 |
| 20260902050546 | 25 | 163 | 0.0 | 6.4 | 0.00 | 0.00 | 0.00 | 88 | 1014.7 |
| 20260902045545 | 25 | 187 | 0.0 | 0.0 | 0.00 | 0.00 | 0.00 | 87 | 1014.7 |
| 20260902044547 | 25 | 187 | 0.0 | 0.0 | 0.00 | 0.00 | 0.00 | 87 | 1014.7 |
| 20260902043544 | 25 | 180 | 0.0 | 0.0 | 0.00 | 0.00 | 0.00 | 86 | 1014.6 |
| 20260902042543 | 25 | 180 | 0.0 | 0.0 | 0.00 | 0.00 | 0.00 | 86 | 1014.5 |
| 20260902041546 | 25 | 180 | 0.0 | 0.0 | 0.00 | 0.00 | 0.00 | 86 | 1014.5 |
| 20260902040545 | 25 | 180 | 0.0 | 0.0 | 0.00 | 0.00 | 0.00 | 86 | 1014.4 |
| 20260902035537 | 25 | 180 | 0.0 | 0.0 | 0.00 | 0.00 | 0.00 | 85 | 1014.5 |
| 20260902034539 | 25 | 180 | 0.0 | 0.0 | 0.00 | 0.00 | 0.00 | 85 | 1014.5 |
| 20260902033537 | 25 | 180 | 0.0 | 0.0 | 0.00 | 0.00 | 0.00 | 85 | 1014.4 |
| 20260902032542 | 26 | 180 | 0.0 | 0.0 | 0.00 | 0.00 | 0.00 | 85 | 1014.4 |
| 20260902031538 | 26 | 180 | 0.0 | 0.0 | 0.00 | 0.00 | 0.00 | 85 | 1014.4 |
| 20260902030541 | 26 | 180 | 0.0 | 0.0 | 0.00 | 0.00 | 0.00 | 84 | 1014.2 |
| 20260902025538 | 26 | 180 | 0.0 | 0.0 | 0.00 | 0.00 | 0.00 | 84 | 1014.1 |
| 20260902024540 | 26 | 180 | 0.0 | 0.0 | 0.00 | 0.00 | 0.00 | 84 | 1014.1 |
| 20260902023536 | 26 | 174 | 0.0 | 0.0 | 0.00 | 0.00 | 0.00 | 83 | 1014.2 |
| 20260902022541 | 27 | 174 | 0.0 | 0.0 | 0.00 | 0.00 | 0.00 | 83 | 1014.2 |
| 20260902021556 | 27 | 174 | 0.0 | 0.0 | 0.00 | 0.00 | 0.00 | 83 | 1014.0 |
| 20260902020547 | 27 | 174 | 0.0 | 0.0 | 0.00 | 0.00 | 0.00 | 82 | 1014.1 |
| 20260902015531 | 27 | 174 | 0.0 | 6.4 | 0.00 | 0.00 | 0.00 | 82 | 1014.2 |
| 20260902014532 | 27 | 195 | 0.0 | 6.4 | 0.00 | 0.00 | 0.00 | 82 | 1014.3 |
| 20260902013533 | 27 | 174 | 0.0 | 6.4 | 0.00 | 0.00 | 0.00 | 82 | 1014.3 |
| 20260902012533 | 27 | 316 | 0.0 | 8.0 | 0.00 | 0.00 | 0.00 | 82 | 1014.2 |
| 20260902011532 | 28 | 187 | 0.0 | 3.2 | 0.00 | 0.00 | 0.00 | 81 | 1014.2 |
| 20260902010530 | 28 | 189 | 0.0 | 8.0 | 0.00 | 0.00 | 0.00 | 81 | 1014.0 |
| 20260902005530 | 28 | 179 | 0.0 | 11.3 | 0.00 | 0.00 | 0.00 | 81 | 1014.0 |
| 20260902004532 | 28 | 177 | 0.0 | 11.3 | 0.00 | 0.00 | 0.00 | 80 | 1013.8 |
| 20260902003524 | 28 | 232 | 0.0 | 11.3 | 0.00 | 0.00 | 0.00 | 79 | 1013.7 |
| 20260902002525 | 28 | 173 | 0.0 | 0.0 | 0.00 | 0.00 | 0.00 | 79 | 1013.7 |
| 20260902001526 | 28 | 173 | 0.0 | 0.0 | 0.00 | 0.00 | 0.00 | 79 | 1013.6 |
| 20260902000523 | 28 | 173 | 0.0 | 0.0 | 0.00 | 0.00 | 0.00 | 78 | 1013.7 |
| 20260901235523 | 28 | 173 | 0.0 | 0.0 | 0.00 | 0.00 | 0.00 | 78 | 1013.8 |
| 20260901234524 | 28 | 173 | 0.0 | 0.0 | 0.00 | 0.00 | 0.00 | 78 | 1013.8 |
| 20260901233528 | 29 | 173 | 0.0 | 3.2 | 0.00 | 0.00 | 0.00 | 77 | 1013.8 |
| 20260901232524 | 29 | 175 | 0.0 | 3.2 | 0.00 | 0.00 | 0.00 | 76 | 1013.9 |
| 20260901231528 | 29 | 229 | 0.0 | 3.2 | 0.00 | 0.00 | 0.00 | 75 | 1013.9 |
| 20260901230518 | 30 | 229 | 0.0 | 8.0 | 0.00 | 0.00 | 0.00 | 74 | 1013.9 |
| 20260901225516 | 30 | 244 | 3.2 | 11.3 | 0.00 | 0.00 | 0.00 | 73 | 1013.8 |
| 20260901224516 | 30 | 181 | 3.2 | 8.0 | 0.00 | 0.00 | 0.00 | 72 | 1013.8 |
| 20260901223518 | 30 | 154 | 3.2 | 11.3 | 0.00 | 0.00 | 0.00 | 72 | 1013.8 |
| 20260901222516 | 30 | 203 | 3.2 | 8.0 | 0.00 | 0.00 | 0.00 | 72 | 1013.8 |
| 20260901221518 | 30 | 232 | 3.2 | 11.3 | 0.00 | 0.00 | 0.00 | 71 | 1013.7 |
| 20260901220516 | 30 | 158 | 3.2 | 11.3 | 0.00 | 0.00 | 0.00 | 70 | 1013.6 |
| 20260901215519 | 30 | 165 | 3.2 | 11.3 | 0.00 | 0.00 | 0.00 | 71 | 1013.6 |
| 20260901214521 | 30 | 260 | 3.2 | 11.3 | 0.00 | 0.00 | 0.00 | 70 | 1013.5 |
| 20260901213516 | 30 | 203 | 3.2 | 14.5 | 0.00 | 0.00 | 0.00 | 70 | 1013.6 |
| 20260901212521 | 30 | 180 | 3.2 | 11.3 | 0.00 | 0.00 | 0.00 | 72 | 1013.7 |
| 20260901211518 | 30 | 191 | 3.2 | 11.3 | 0.00 | 0.00 | 0.00 | 70 | 1013.7 |
| 20260901210516 | 30 | 169 | 6.4 | 19.3 | 0.00 | 0.00 | 0.00 | 69 | 1013.8 |
| 20260901205516 | 31 | 270 | 3.2 | 17.7 | 0.00 | 0.00 | 0.00 | 69 | 1013.7 |
| 20260901204513 | 31 | 211 | 6.4 | 17.7 | 0.00 | 0.00 | 0.00 | 69 | 1013.7 |
| 20260901203515 | 31 | 190 | 3.2 | 17.7 | 0.00 | 0.00 | 0.00 | 70 | 1013.8 |
| 20260901202513 | 30 | 157 | 3.2 | 14.5 | 0.00 | 0.00 | 0.00 | 70 | 1013.9 |
| 20260901201516 | 31 | 180 | 6.4 | 14.5 | 0.00 | 0.00 | 0.00 | 70 | 1013.9 |
| 20260901200513 | 30 | 151 | 3.2 | 14.5 | 0.00 | 0.00 | 0.00 | 71 | 1013.8 |
| 20260901195512 | 30 | 221 | 3.2 | 14.5 | 0.00 | 0.00 | 0.00 | 71 | 1013.9 |
| 20260901194516 | 30 | 144 | 6.4 | 14.5 | 0.00 | 0.00 | 0.00 | 72 | 1013.9 |
| 20260901193515 | 31 | 344 | 3.2 | 22.5 | 0.00 | 0.00 | 0.00 | 70 | 1014.0 |
| 20260901192512 | 31 | 280 | 3.2 | 14.5 | 0.00 | 0.00 | 0.00 | 73 | 1014.1 |
| 20260901191515 | 30 | 173 | 6.4 | 14.5 | 0.00 | 0.00 | 0.00 | 72 | 1014.1 |
| 20260901190513 | 31 | 316 | 3.2 | 19.3 | 0.00 | 0.00 | 0.00 | 68 | 1014.0 |
| 20260901185533 | 31 | 234 | 3.2 | 19.3 | 0.00 | 0.03 | 0.00 | 69 | 1014.0 |
| 20260901184519 | 31 | 338 | 6.4 | 11.3 | 0.00 | 0.03 | 0.00 | 71 | 1013.9 |
| 20260901183511 | 31 | 342 | 3.2 | 17.7 | 0.00 | 0.03 | 0.00 | 72 | 1013.9 |
| 20260901182514 | 31 | 172 | 6.4 | 17.7 | 0.00 | 0.03 | 0.00 | 71 | 1014.0 |
| 20260901181512 | 31 | 315 | 3.2 | 17.7 | 0.00 | 0.03 | 0.00 | 71 | 1013.9 |
| 20260901180511 | 30 | 186 | 3.2 | 22.5 | 0.00 | 0.03 | 0.00 | 72 | 1013.9 |
| 20260901175529 | 30 | 319 | 3.2 | 17.7 | 0.00 | 0.03 | 0.00 | 74 | 1014.0 |
| 20260901174510 | 30 | 249 | 6.4 | 19.3 | 0.00 | 0.03 | 0.00 | 74 | 1014.1 |